Time,TemperatureF,DewpointF,PressureIn,WindDirection,WindDirectionDegrees,WindSpeedMPH,WindSpeedGustMPH,Humidity,HourlyPrecipIn,Conditions,Clouds,dailyrainin,SoftwareType,DateUTC
2013-04-09 00:00:00,73.0,62.3,29.56,SE,135,0.0,0.0,69,0.00,,,0.00,WUHU21623XXSP,2013-04-09 04:00:00,
2013-04-09 00:05:00,72.9,62.2,29.56,SE,135,0.0,0.0,69,0.00,,,0.00,WUHU21623XXSP,2013-04-09 04:05:00,
2013-04-09 00:10:00,72.9,62.2,29.57,SE,135,0.0,0.0,69,0.00,,,0.00,WUHU21623XXSP,2013-04-09 04:10:00,
2013-04-09 00:15:00,72.7,62.0,29.57,ESE,112,0.0,0.0,69,0.00,,,0.00,WUHU21623XXSP,2013-04-09 04:15:00,
2013-04-09 00:20:00,72.7,62.0,29.56,SE,135,0.0,0.0,69,0.00,,,0.00,WUHU21623XXSP,2013-04-09 04:20:00,
2013-04-09 00:25:00,72.7,62.0,29.56,SE,135,0.0,0.0,69,0.00,,,0.00,WUHU21623XXSP,2013-04-09 04:25:00,
2013-04-09 00:30:00,72.7,62.4,29.56,ESE,112,0.0,0.0,70,0.00,,,0.00,WUHU21623XXSP,2013-04-09 04:30:00,
2013-04-09 00:35:00,72.7,62.4,29.56,East,90,0.0,0.0,70,0.00,,,0.00,WUHU21623XXSP,2013-04-09 04:35:00,
2013-04-09 00:41:00,72.5,62.2,29.55,ESE,112,0.0,0.0,70,0.00,,,0.00,WUHU21623XXSP,2013-04-09 04:41:00,
2013-04-09 00:45:00,72.5,62.2,29.56,ESE,112,0.0,0.0,70,0.00,,,0.00,WUHU21623XXSP,2013-04-09 04:45:00,
2013-04-09 00:50:00,72.3,62.1,29.56,SE,135,0.0,0.0,70,0.00,,,0.00,WUHU21623XXSP,2013-04-09 04:50:00,
2013-04-09 00:56:00,72.3,62.1,29.55,ESE,112,0.0,0.0,70,0.00,,,0.00,WUHU21623XXSP,2013-04-09 04:56:00,
2013-04-09 01:01:00,72.3,62.4,29.55,ENE,67,0.0,0.0,71,0.00,,,0.00,WUHU21623XXSP,2013-04-09 05:01:00,
2013-04-09 01:06:00,72.3,62.4,29.55,East,90,0.0,0.0,71,0.00,,,0.00,WUHU21623XXSP,2013-04-09 05:06:00,
2013-04-09 01:11:00,72.3,62.8,29.55,ESE,112,0.0,0.0,72,0.00,,,0.00,WUHU21623XXSP,2013-04-09 05:11:00,
2013-04-09 01:16:00,72.3,62.8,29.55,ESE,112,0.0,0.0,72,0.00,,,0.00,WUHU21623XXSP,2013-04-09 05:16:00,
2013-04-09 01:21:00,72.3,62.8,29.55,ESE,112,0.0,0.0,72,0.00,,,0.00,WUHU21623XXSP,2013-04-09 05:21:00,
2013-04-09 01:26:00,72.3,62.8,29.55,ESE,112,0.0,0.0,72,0.00,,,0.00,WUHU21623XXSP,2013-04-09 05:26:00,
2013-04-09 01:31:00,72.3,62.8,29.54,ESE,112,0.0,0.0,72,0.00,,,0.00,WUHU21623XXSP,2013-04-09 05:31:00,
2013-04-09 01:36:00,72.3,62.8,29.55,ESE,112,0.0,0.0,72,0.00,,,0.00,WUHU21623XXSP,2013-04-09 05:36:00,
2013-04-09 01:41:00,72.1,62.6,29.55,SE,135,0.0,0.0,72,0.00,,,0.00,WUHU21623XXSP,2013-04-09 05:41:00,
2013-04-09 01:46:00,72.1,63.0,29.54,SE,135,0.0,0.0,73,0.00,,,0.00,WUHU21623XXSP,2013-04-09 05:46:00,
2013-04-09 01:51:00,72.1,63.0,29.54,SE,135,0.0,0.0,73,0.00,,,0.00,WUHU21623XXSP,2013-04-09 05:51:00,
2013-04-09 01:56:00,72.1,63.0,29.53,SE,135,0.0,0.0,73,0.00,,,0.00,WUHU21623XXSP,2013-04-09 05:56:00,
2013-04-09 02:01:00,72.0,62.8,29.53,ESE,112,0.0,0.0,73,0.00,,,0.00,WUHU21623XXSP,2013-04-09 06:01:00,
2013-04-09 02:06:00,72.1,63.0,29.53,ESE,112,0.0,0.0,73,0.00,,,0.00,WUHU21623XXSP,2013-04-09 06:06:00,
2013-04-09 02:11:00,72.0,62.8,29.53,SSE,157,0.0,0.0,73,0.00,,,0.00,WUHU21623XXSP,2013-04-09 06:11:00,
2013-04-09 02:16:00,72.0,62.8,29.53,East,90,0.0,0.0,73,0.00,,,0.00,WUHU21623XXSP,2013-04-09 06:16:00,
2013-04-09 02:21:00,72.0,62.8,29.53,SE,135,0.0,0.0,73,0.00,,,0.00,WUHU21623XXSP,2013-04-09 06:21:00,
2013-04-09 02:26:00,72.0,62.8,29.52,SE,135,0.0,0.0,73,0.00,,,0.00,WUHU21623XXSP,2013-04-09 06:26:00,
2013-04-09 02:31:00,72.0,62.8,29.52,ESE,112,0.0,0.0,73,0.00,,,0.00,WUHU21623XXSP,2013-04-09 06:31:00,
2013-04-09 02:36:00,72.1,63.0,29.52,SE,135,0.0,0.0,73,0.00,,,0.00,WUHU21623XXSP,2013-04-09 06:36:00,
2013-04-09 02:41:00,72.0,62.8,29.52,ESE,112,0.0,0.0,73,0.00,,,0.00,WUHU21623XXSP,2013-04-09 06:41:00,
2013-04-09 02:46:00,72.0,62.8,29.52,ESE,112,0.0,0.0,73,0.00,,,0.00,WUHU21623XXSP,2013-04-09 06:46:00,
2013-04-09 02:51:00,72.0,62.8,29.51,SE,135,0.0,0.0,73,0.00,,,0.00,WUHU21623XXSP,2013-04-09 06:51:00,
2013-04-09 02:56:00,72.0,62.8,29.51,ESE,112,0.0,0.0,73,0.00,,,0.00,WUHU21623XXSP,2013-04-09 06:56:00,
2013-04-09 03:01:00,72.0,62.8,29.51,SE,135,0.0,0.0,73,0.00,,,0.00,WUHU21623XXSP,2013-04-09 07:01:00,
2013-04-09 03:06:00,72.0,62.8,29.50,ESE,112,0.0,0.0,73,0.00,,,0.00,WUHU21623XXSP,2013-04-09 07:06:00,
2013-04-09 03:11:00,72.0,62.8,29.50,ESE,112,0.0,0.0,73,0.00,,,0.00,WUHU21623XXSP,2013-04-09 07:11:00,
2013-04-09 03:16:00,72.1,63.0,29.50,ESE,112,0.0,0.0,73,0.00,,,0.00,WUHU21623XXSP,2013-04-09 07:16:00,
2013-04-09 03:21:00,72.1,63.0,29.51,East,90,0.0,0.0,73,0.00,,,0.00,WUHU21623XXSP,2013-04-09 07:21:00,
2013-04-09 03:26:00,72.1,63.0,29.50,East,90,0.0,0.0,73,0.00,,,0.00,WUHU21623XXSP,2013-04-09 07:26:00,
2013-04-09 03:31:00,72.3,63.2,29.50,ESE,112,0.0,0.0,73,0.00,,,0.00,WUHU21623XXSP,2013-04-09 07:31:00,
2013-04-09 03:36:00,72.3,63.2,29.50,SE,135,0.0,0.0,73,0.00,,,0.00,WUHU21623XXSP,2013-04-09 07:36:00,
2013-04-09 03:41:00,72.3,63.2,29.50,SSE,157,0.0,0.0,73,0.00,,,0.00,WUHU21623XXSP,2013-04-09 07:41:00,
2013-04-09 03:46:00,72.3,63.2,29.50,SSE,157,0.0,0.0,73,0.00,,,0.00,WUHU21623XXSP,2013-04-09 07:46:00,
2013-04-09 03:51:00,72.3,63.2,29.50,SE,135,0.0,0.0,73,0.00,,,0.00,WUHU21623XXSP,2013-04-09 07:51:00,
2013-04-09 03:56:00,72.3,63.2,29.50,SE,135,0.0,0.0,73,0.00,,,0.00,WUHU21623XXSP,2013-04-09 07:56:00,
2013-04-09 04:01:00,72.3,63.2,29.50,SE,135,0.0,0.0,73,0.00,,,0.00,WUHU21623XXSP,2013-04-09 08:01:00,
2013-04-09 04:06:00,72.3,63.2,29.50,SSE,157,0.0,0.0,73,0.00,,,0.00,WUHU21623XXSP,2013-04-09 08:06:00,
2013-04-09 04:11:00,72.3,63.2,29.50,SE,135,0.0,0.0,73,0.00,,,0.00,WUHU21623XXSP,2013-04-09 08:11:00,
2013-04-09 04:16:00,72.1,63.0,29.50,SSE,157,0.0,0.0,73,0.00,,,0.00,WUHU21623XXSP,2013-04-09 08:16:00,
2013-04-09 04:21:00,72.1,63.0,29.50,ENE,67,0.0,0.0,73,0.00,,,0.00,WUHU21623XXSP,2013-04-09 08:21:00,
2013-04-09 04:26:00,72.1,63.0,29.50,ESE,112,0.0,0.0,73,0.00,,,0.00,WUHU21623XXSP,2013-04-09 08:26:00,
2013-04-09 04:31:00,72.1,63.0,29.50,ESE,112,0.0,0.0,73,0.00,,,0.00,WUHU21623XXSP,2013-04-09 08:31:00,
2013-04-09 04:36:00,72.1,63.0,29.50,SE,135,0.0,0.0,73,0.00,,,0.00,WUHU21623XXSP,2013-04-09 08:36:00,
2013-04-09 04:42:00,72.1,63.0,29.50,SE,135,0.0,0.0,73,0.00,,,0.00,WUHU21623XXSP,2013-04-09 08:42:00,
2013-04-09 04:47:00,72.0,62.8,29.50,SSE,157,0.0,0.0,73,0.00,,,0.00,WUHU21623XXSP,2013-04-09 08:47:00,
2013-04-09 04:52:00,72.0,62.8,29.50,SE,135,0.0,0.0,73,0.00,,,0.00,WUHU21623XXSP,2013-04-09 08:52:00,
2013-04-09 04:57:00,72.0,62.8,29.50,SE,135,0.0,0.0,73,0.00,,,0.00,WUHU21623XXSP,2013-04-09 08:57:00,
2013-04-09 05:02:00,72.0,62.8,29.50,SSE,157,0.0,0.0,73,0.00,,,0.00,WUHU21623XXSP,2013-04-09 09:02:00,
2013-04-09 05:07:00,72.0,62.8,29.50,SSE,157,0.0,0.0,73,0.00,,,0.00,WUHU21623XXSP,2013-04-09 09:07:00,
2013-04-09 05:12:00,71.8,62.7,29.51,ESE,112,0.0,0.0,73,0.00,,,0.00,WUHU21623XXSP,2013-04-09 09:12:00,
2013-04-09 05:17:00,71.8,62.7,29.51,ESE,112,0.0,0.0,73,0.00,,,0.00,WUHU21623XXSP,2013-04-09 09:17:00,
2013-04-09 05:22:00,71.8,62.7,29.51,SE,135,0.0,0.0,73,0.00,,,0.00,WUHU21623XXSP,2013-04-09 09:22:00,
2013-04-09 05:27:00,71.4,62.3,29.51,SE,135,0.0,0.0,73,0.00,,,0.00,WUHU21623XXSP,2013-04-09 09:27:00,
2013-04-09 05:32:00,71.4,62.7,29.51,SSE,157,0.0,0.0,74,0.00,,,0.00,WUHU21623XXSP,2013-04-09 09:32:00,
2013-04-09 05:37:00,71.4,62.7,29.52,SE,135,0.0,0.0,74,0.00,,,0.00,WUHU21623XXSP,2013-04-09 09:37:00,
2013-04-09 05:42:00,71.4,62.7,29.52,SE,135,0.0,0.0,74,0.00,,,0.00,WUHU21623XXSP,2013-04-09 09:42:00,
2013-04-09 05:47:00,71.4,62.7,29.52,ESE,112,0.0,0.0,74,0.00,,,0.00,WUHU21623XXSP,2013-04-09 09:47:00,
2013-04-09 05:52:00,71.4,62.7,29.52,SSE,157,0.0,0.0,74,0.00,,,0.00,WUHU21623XXSP,2013-04-09 09:52:00,
2013-04-09 05:57:00,71.4,63.0,29.51,SE,135,0.0,0.0,75,0.00,,,0.00,WUHU21623XXSP,2013-04-09 09:57:00,
2013-04-09 06:02:00,71.4,63.0,29.52,SE,135,0.0,0.0,75,0.00,,,0.00,WUHU21623XXSP,2013-04-09 10:02:00,
2013-04-09 06:07:00,71.4,63.0,29.52,ESE,112,0.0,0.0,75,0.00,,,0.00,WUHU21623XXSP,2013-04-09 10:07:00,
2013-04-09 06:12:00,71.4,63.0,29.52,SE,135,0.0,0.0,75,0.00,,,0.00,WUHU21623XXSP,2013-04-09 10:12:00,
2013-04-09 06:17:00,71.4,63.0,29.52,SE,135,0.0,0.0,75,0.00,,,0.00,WUHU21623XXSP,2013-04-09 10:17:00,
2013-04-09 06:22:00,71.2,62.9,29.52,SE,135,0.0,0.0,75,0.00,,,0.00,WUHU21623XXSP,2013-04-09 10:22:00,
2013-04-09 06:27:00,71.2,62.9,29.52,SE,135,0.0,0.0,75,0.00,,,0.00,WUHU21623XXSP,2013-04-09 10:27:00,
2013-04-09 06:32:00,71.4,63.0,29.53,SE,135,0.0,0.0,75,0.00,,,0.00,WUHU21623XXSP,2013-04-09 10:32:00,
2013-04-09 06:37:00,71.4,63.4,29.53,SE,135,0.0,0.0,76,0.00,,,0.00,WUHU21623XXSP,2013-04-09 10:37:00,
2013-04-09 06:42:00,71.2,63.2,29.53,SE,135,0.0,0.0,76,0.00,,,0.00,WUHU21623XXSP,2013-04-09 10:42:00,
2013-04-09 06:47:00,71.4,63.4,29.53,SE,135,0.0,0.0,76,0.00,,,0.00,WUHU21623XXSP,2013-04-09 10:47:00,
2013-04-09 06:52:00,71.4,63.4,29.53,SE,135,0.0,0.0,76,0.00,,,0.00,WUHU21623XXSP,2013-04-09 10:52:00,
2013-04-09 06:57:00,71.4,63.4,29.54,SE,135,0.0,0.0,76,0.00,,,0.00,WUHU21623XXSP,2013-04-09 10:57:00,
2013-04-09 07:02:00,71.6,63.6,29.54,SE,135,0.0,0.0,76,0.00,,,0.00,WUHU21623XXSP,2013-04-09 11:02:00,
2013-04-09 07:07:00,71.8,63.8,29.53,SE,135,0.0,0.0,76,0.00,,,0.00,WUHU21623XXSP,2013-04-09 11:07:00,
2013-04-09 07:12:00,71.8,63.8,29.54,SE,135,0.0,0.0,76,0.00,,,0.00,WUHU21623XXSP,2013-04-09 11:12:00,
2013-04-09 07:17:00,72.0,64.0,29.54,SE,135,0.0,0.0,76,0.00,,,0.00,WUHU21623XXSP,2013-04-09 11:17:00,
2013-04-09 07:22:00,72.1,64.1,29.53,SSE,157,0.0,0.0,76,0.00,,,0.00,WUHU21623XXSP,2013-04-09 11:22:00,
2013-04-09 07:27:00,72.3,64.3,29.54,SE,135,0.0,0.0,76,0.00,,,0.00,WUHU21623XXSP,2013-04-09 11:27:00,
2013-04-09 07:32:00,72.3,64.3,29.54,East,90,0.0,0.0,76,0.00,,,0.00,WUHU21623XXSP,2013-04-09 11:32:00,
2013-04-09 07:37:00,72.7,64.3,29.54,ESE,112,0.0,0.0,75,0.00,,,0.00,WUHU21623XXSP,2013-04-09 11:37:00,
2013-04-09 07:42:00,73.0,64.3,29.54,ESE,112,0.0,0.0,74,0.00,,,0.00,WUHU21623XXSP,2013-04-09 11:42:00,
2013-04-09 07:47:00,73.0,64.3,29.54,SSE,157,0.0,0.0,74,0.00,,,0.00,WUHU21623XXSP,2013-04-09 11:47:00,
2013-04-09 07:52:00,73.0,63.9,29.54,SE,135,0.0,0.0,73,0.00,,,0.00,WUHU21623XXSP,2013-04-09 11:52:00,
2013-04-09 07:57:00,73.2,64.5,29.54,South,180,0.0,0.0,74,0.00,,,0.00,WUHU21623XXSP,2013-04-09 11:57:00,
2013-04-09 08:02:00,73.2,64.5,29.54,SSE,157,0.0,0.0,74,0.00,,,0.00,WUHU21623XXSP,2013-04-09 12:02:00,
2013-04-09 08:08:00,73.2,64.5,29.55,SE,135,0.0,0.0,74,0.00,,,0.00,WUHU21623XXSP,2013-04-09 12:08:00,
2013-04-09 08:13:00,73.2,64.5,29.55,SE,135,0.0,0.0,74,0.00,,,0.00,WUHU21623XXSP,2013-04-09 12:13:00,
2013-04-09 08:18:00,73.2,64.5,29.55,SE,135,0.0,0.0,74,0.00,,,0.00,WUHU21623XXSP,2013-04-09 12:18:00,
2013-04-09 08:23:00,73.2,64.5,29.55,SE,135,0.0,0.0,74,0.00,,,0.00,WUHU21623XXSP,2013-04-09 12:23:00,
2013-04-09 08:28:00,73.6,64.8,29.55,ESE,112,0.0,0.0,74,0.00,,,0.00,WUHU21623XXSP,2013-04-09 12:28:00,
2013-04-09 08:33:00,73.9,65.2,29.55,SSE,157,0.0,0.0,74,0.00,,,0.00,WUHU21623XXSP,2013-04-09 12:33:00,
2013-04-09 08:38:00,75.0,65.4,29.56,SE,135,0.0,0.0,72,0.00,,,0.00,WUHU21623XXSP,2013-04-09 12:38:00,
2013-04-09 08:43:00,75.0,65.0,29.56,SSE,157,0.0,0.0,71,0.00,,,0.00,WUHU21623XXSP,2013-04-09 12:43:00,
2013-04-09 08:48:00,75.0,65.4,29.56,SSE,157,0.0,0.0,72,0.00,,,0.00,WUHU21623XXSP,2013-04-09 12:48:00,
2013-04-09 08:53:00,75.9,65.5,29.56,East,90,0.0,0.0,70,0.00,,,0.00,WUHU21623XXSP,2013-04-09 12:53:00,
2013-04-09 08:58:00,76.3,65.4,29.56,ENE,67,0.0,0.0,69,0.00,,,0.00,WUHU21623XXSP,2013-04-09 12:58:00,
2013-04-09 09:03:00,77.0,65.2,29.56,SSE,157,0.0,0.0,67,0.00,,,0.00,WUHU21623XXSP,2013-04-09 13:03:00,
2013-04-09 09:08:00,77.9,64.7,29.56,ESE,112,0.0,0.0,64,0.00,,,0.00,WUHU21623XXSP,2013-04-09 13:08:00,
2013-04-09 09:13:00,78.1,65.3,29.56,SE,135,0.0,0.0,65,0.00,,,0.00,WUHU21623XXSP,2013-04-09 13:13:00,
2013-04-09 09:18:00,77.2,64.0,29.56,ESE,112,0.0,0.0,64,0.00,,,0.00,WUHU21623XXSP,2013-04-09 13:18:00,
2013-04-09 09:23:00,76.5,64.2,29.56,SE,135,0.0,0.0,66,0.00,,,0.00,WUHU21623XXSP,2013-04-09 13:23:00,
2013-04-09 09:28:00,76.3,64.5,29.57,SE,135,0.0,0.0,67,0.00,,,0.00,WUHU21623XXSP,2013-04-09 13:28:00,
2013-04-09 09:33:00,76.5,64.7,29.57,SE,135,0.0,0.0,67,0.00,,,0.00,WUHU21623XXSP,2013-04-09 13:33:00,
2013-04-09 09:38:00,76.8,65.0,29.58,SSE,157,0.0,0.0,67,0.00,,,0.00,WUHU21623XXSP,2013-04-09 13:38:00,
2013-04-09 09:43:00,78.6,66.3,29.58,SSE,157,0.0,0.0,66,0.00,,,0.00,WUHU21623XXSP,2013-04-09 13:43:00,
2013-04-09 09:48:00,80.4,66.7,29.58,SSE,157,0.0,0.0,63,0.00,,,0.00,WUHU21623XXSP,2013-04-09 13:48:00,
2013-04-09 09:53:00,81.0,66.7,29.58,SSE,157,0.0,0.0,62,0.00,,,0.00,WUHU21623XXSP,2013-04-09 13:53:00,
2013-04-09 09:58:00,79.7,65.6,29.58,SE,135,0.0,0.0,62,0.00,,,0.00,WUHU21623XXSP,2013-04-09 13:58:00,
2013-04-09 10:03:00,79.0,65.8,29.58,SSE,157,0.0,0.0,64,0.00,,,0.00,WUHU21623XXSP,2013-04-09 14:03:00,
2013-04-09 10:08:00,78.4,65.2,29.59,SSE,157,0.0,0.0,64,0.00,,,0.00,WUHU21623XXSP,2013-04-09 14:08:00,
2013-04-09 10:13:00,77.9,65.2,29.59,SSE,157,0.0,0.0,65,0.00,,,0.00,WUHU21623XXSP,2013-04-09 14:13:00,
2013-04-09 10:18:00,77.7,65.4,29.59,SSE,157,0.0,0.0,66,0.00,,,0.00,WUHU21623XXSP,2013-04-09 14:18:00,
2013-04-09 10:23:00,77.5,65.7,29.59,SSE,157,0.0,0.0,67,0.00,,,0.00,WUHU21623XXSP,2013-04-09 14:23:00,
2013-04-09 10:28:00,77.2,65.8,29.59,SE,135,0.0,0.0,68,0.00,,,0.00,WUHU21623XXSP,2013-04-09 14:28:00,
2013-04-09 10:33:00,77.2,65.8,29.59,East,90,0.0,0.0,68,0.00,,,0.00,WUHU21623XXSP,2013-04-09 14:33:00,
2013-04-09 10:38:00,77.7,65.9,29.60,SSE,157,0.0,0.0,67,0.00,,,0.00,WUHU21623XXSP,2013-04-09 14:38:00,
2013-04-09 10:43:00,78.1,66.2,29.60,East,90,0.0,0.0,67,0.00,,,0.00,WUHU21623XXSP,2013-04-09 14:43:00,
2013-04-09 10:49:00,78.6,66.3,29.60,SE,135,0.0,0.0,66,0.00,,,0.00,WUHU21623XXSP,2013-04-09 14:49:00,
2013-04-09 10:54:00,79.2,66.4,29.60,SE,135,0.0,0.0,65,0.00,,,0.00,WUHU21623XXSP,2013-04-09 14:54:00,
2013-04-09 10:59:00,79.2,66.4,29.60,ENE,67,0.0,0.0,65,0.00,,,0.00,WUHU21623XXSP,2013-04-09 14:59:00,
2013-04-09 11:04:00,82.2,67.8,29.59,SE,135,0.0,0.0,62,0.00,,,0.00,WUHU21623XXSP,2013-04-09 15:04:00,
2013-04-09 11:09:00,82.9,67.6,29.59,SSE,157,0.0,0.0,60,0.00,,,0.00,WUHU21623XXSP,2013-04-09 15:09:00,
2013-04-09 11:14:00,83.1,67.3,29.59,ESE,112,0.0,0.0,59,0.00,,,0.00,WUHU21623XXSP,2013-04-09 15:14:00,
2013-04-09 11:19:00,83.3,67.5,29.60,SE,135,0.0,0.0,59,0.00,,,0.00,WUHU21623XXSP,2013-04-09 15:19:00,
2013-04-09 11:24:00,84.0,67.7,29.59,ENE,67,0.0,0.0,58,0.00,,,0.00,WUHU21623XXSP,2013-04-09 15:24:00,
2013-04-09 11:29:00,84.6,67.7,29.59,East,90,0.0,0.0,57,0.00,,,0.00,WUHU21623XXSP,2013-04-09 15:29:00,
2013-04-09 11:34:00,84.4,67.5,29.59,East,90,0.0,0.0,57,0.00,,,0.00,WUHU21623XXSP,2013-04-09 15:34:00,
2013-04-09 11:39:00,84.4,67.5,29.60,SE,135,0.0,0.0,57,0.00,,,0.00,WUHU21623XXSP,2013-04-09 15:39:00,
2013-04-09 11:45:00,84.7,67.3,29.60,SE,135,0.0,0.0,56,0.00,,,0.00,WUHU21623XXSP,2013-04-09 15:45:00,
2013-04-09 11:50:00,83.8,67.0,29.60,ESE,112,0.0,0.0,57,0.00,,,0.00,WUHU21623XXSP,2013-04-09 15:50:00,
2013-04-09 11:55:00,82.6,66.8,29.60,South,180,0.0,0.0,59,0.00,,,0.00,WUHU21623XXSP,2013-04-09 15:55:00,
2013-04-09 12:00:00,82.0,66.3,29.60,ESE,112,0.0,0.0,59,0.00,,,0.00,WUHU21623XXSP,2013-04-09 16:00:00,
2013-04-09 12:05:00,82.0,66.3,29.60,ESE,112,0.0,0.0,59,0.00,,,0.00,WUHU21623XXSP,2013-04-09 16:05:00,
2013-04-09 12:10:00,83.5,67.7,29.59,ESE,112,0.0,0.0,59,0.00,,,0.00,WUHU21623XXSP,2013-04-09 16:10:00,
2013-04-09 12:15:00,82.8,66.9,29.60,ESE,112,0.0,0.0,59,0.00,,,0.00,WUHU21623XXSP,2013-04-09 16:15:00,
2013-04-09 12:20:00,82.4,67.1,29.59,ESE,112,0.0,0.0,60,0.00,,,0.00,WUHU21623XXSP,2013-04-09 16:20:00,
2013-04-09 12:25:00,82.9,67.1,29.59,East,90,0.0,0.0,59,0.00,,,0.00,WUHU21623XXSP,2013-04-09 16:25:00,
2013-04-09 12:30:00,82.8,66.4,29.59,ENE,67,0.0,0.0,58,0.00,,,0.00,WUHU21623XXSP,2013-04-09 16:30:00,
2013-04-09 12:35:00,82.8,66.9,29.59,SE,135,0.0,0.0,59,0.00,,,0.00,WUHU21623XXSP,2013-04-09 16:35:00,
2013-04-09 12:40:00,83.5,67.1,29.59,East,90,0.0,0.0,58,0.00,,,0.00,WUHU21623XXSP,2013-04-09 16:40:00,
2013-04-09 12:45:00,82.9,66.6,29.59,SE,135,0.0,0.0,58,0.00,,,0.00,WUHU21623XXSP,2013-04-09 16:45:00,
2013-04-09 12:50:00,82.8,66.4,29.59,SSE,157,0.0,0.0,58,0.00,,,0.00,WUHU21623XXSP,2013-04-09 16:50:00,
2013-04-09 12:55:00,84.4,67.5,29.58,East,90,0.0,0.0,57,0.00,,,0.00,WUHU21623XXSP,2013-04-09 16:55:00,
2013-04-09 13:00:00,85.8,68.8,29.58,ESE,112,0.0,0.0,57,0.00,,,0.00,WUHU21623XXSP,2013-04-09 17:00:00,
2013-04-09 13:05:00,85.8,68.8,29.58,East,90,0.0,0.0,57,0.00,,,0.00,WUHU21623XXSP,2013-04-09 17:05:00,
2013-04-09 13:10:00,85.8,67.2,29.58,SSE,157,0.0,0.0,54,0.00,,,0.00,WUHU21623XXSP,2013-04-09 17:10:00,
2013-04-09 13:15:00,86.5,67.9,29.58,SE,135,0.0,0.0,54,0.00,,,0.00,WUHU21623XXSP,2013-04-09 17:15:00,
2013-04-09 13:20:00,87.4,67.7,29.58,NE,45,0.0,0.0,52,0.00,,,0.00,WUHU21623XXSP,2013-04-09 17:20:00,
2013-04-09 13:25:00,85.6,67.1,29.58,East,90,0.0,0.0,54,0.00,,,0.00,WUHU21623XXSP,2013-04-09 17:25:00,
2013-04-09 13:30:00,86.4,67.7,29.58,ESE,112,0.0,0.0,54,0.00,,,0.00,WUHU21623XXSP,2013-04-09 17:30:00,
2013-04-09 13:35:00,86.5,67.4,29.58,ESE,112,0.0,0.0,53,0.00,,,0.00,WUHU21623XXSP,2013-04-09 17:35:00,
2013-04-09 13:40:00,88.3,69.0,29.58,SE,135,0.0,0.0,53,0.00,,,0.00,WUHU21623XXSP,2013-04-09 17:40:00,
2013-04-09 13:45:00,87.4,68.2,29.58,ENE,67,0.0,0.0,53,0.00,,,0.00,WUHU21623XXSP,2013-04-09 17:45:00,
2013-04-09 13:50:00,86.7,67.5,29.58,SE,135,0.0,0.0,53,0.00,,,0.00,WUHU21623XXSP,2013-04-09 17:50:00,
2013-04-09 13:55:00,85.6,67.6,29.58,ESE,112,0.0,0.0,55,0.00,,,0.00,WUHU21623XXSP,2013-04-09 17:55:00,
2013-04-09 14:00:00,86.7,68.1,29.58,SSE,157,0.0,0.0,54,0.00,,,0.00,WUHU21623XXSP,2013-04-09 18:00:00,
2013-04-09 14:05:00,86.7,68.1,29.57,SSE,157,0.0,0.0,54,0.00,,,0.00,WUHU21623XXSP,2013-04-09 18:05:00,
2013-04-09 14:10:00,85.1,67.6,29.57,East,90,0.0,0.0,56,0.00,,,0.00,WUHU21623XXSP,2013-04-09 18:10:00,
2013-04-09 14:15:00,85.8,67.7,29.57,SE,135,0.0,0.0,55,0.00,,,0.00,WUHU21623XXSP,2013-04-09 18:15:00,
2013-04-09 14:20:00,85.1,67.6,29.56,NNE,22,0.0,0.0,56,0.00,,,0.00,WUHU21623XXSP,2013-04-09 18:20:00,
2013-04-09 14:25:00,84.0,67.2,29.56,East,90,0.0,0.0,57,0.00,,,0.00,WUHU21623XXSP,2013-04-09 18:25:00,
2013-04-09 14:30:00,85.8,67.7,29.56,SE,135,0.0,0.0,55,0.00,,,0.00,WUHU21623XXSP,2013-04-09 18:30:00,
2013-04-09 14:35:00,84.9,67.5,29.56,SE,135,0.0,0.0,56,0.00,,,0.00,WUHU21623XXSP,2013-04-09 18:35:00,
2013-04-09 14:40:00,87.1,68.9,29.55,ESE,112,0.0,0.0,55,0.00,,,0.00,WUHU21623XXSP,2013-04-09 18:40:00,
2013-04-09 14:46:00,86.9,68.2,29.55,ENE,67,0.0,0.0,54,0.00,,,0.00,WUHU21623XXSP,2013-04-09 18:46:00,
2013-04-09 14:51:00,87.4,68.2,29.55,ESE,112,0.0,0.0,53,0.00,,,0.00,WUHU21623XXSP,2013-04-09 18:51:00,
2013-04-09 14:56:00,86.9,67.7,29.55,ENE,67,0.0,0.0,53,0.00,,,0.00,WUHU21623XXSP,2013-04-09 18:56:00,
2013-04-09 15:01:00,86.2,67.6,29.55,ESE,112,0.0,0.0,54,0.00,,,0.00,WUHU21623XXSP,2013-04-09 19:01:00,
2013-04-09 15:13:00,87.4,67.7,29.54,SSE,157,0.0,0.0,52,0.00,,,0.00,WUHU21623XXSP,2013-04-09 19:13:00,
2013-04-09 15:18:00,84.9,66.9,29.54,SE,135,0.0,0.0,55,0.00,,,0.00,WUHU21623XXSP,2013-04-09 19:18:00,
2013-04-09 15:23:00,85.5,67.4,29.54,East,90,0.0,0.0,55,0.00,,,0.00,WUHU21623XXSP,2013-04-09 19:23:00,
2013-04-09 15:28:00,86.5,67.9,29.54,SE,135,0.0,0.0,54,0.00,,,0.00,WUHU21623XXSP,2013-04-09 19:28:00,
2013-04-09 15:33:00,84.6,66.6,29.54,ESE,112,0.0,0.0,55,0.00,,,0.00,WUHU21623XXSP,2013-04-09 19:33:00,
2013-04-09 15:38:00,84.7,67.3,29.53,NE,45,0.0,0.0,56,0.00,,,0.00,WUHU21623XXSP,2013-04-09 19:38:00,
2013-04-09 15:43:00,84.7,67.3,29.53,East,90,0.0,0.0,56,0.00,,,0.00,WUHU21623XXSP,2013-04-09 19:43:00,
2013-04-09 15:48:00,82.6,66.2,29.54,SE,135,0.0,0.0,58,0.00,,,0.00,WUHU21623XXSP,2013-04-09 19:48:00,
2013-04-09 15:53:00,84.0,67.2,29.53,SE,135,0.0,0.0,57,0.00,,,0.00,WUHU21623XXSP,2013-04-09 19:53:00,
2013-04-09 15:58:00,84.9,66.9,29.53,ENE,67,0.0,0.0,55,0.00,,,0.00,WUHU21623XXSP,2013-04-09 19:58:00,
2013-04-09 16:05:00,84.7,66.8,29.53,ENE,67,0.0,0.0,55,0.00,,,0.00,WUHU21623XXSP,2013-04-09 20:05:00,
2013-04-09 16:10:00,83.8,66.5,29.53,East,90,0.0,0.0,56,0.00,,,0.00,WUHU21623XXSP,2013-04-09 20:10:00,
2013-04-09 16:15:00,83.1,66.8,29.53,NE,45,0.0,0.0,58,0.00,,,0.00,WUHU21623XXSP,2013-04-09 20:15:00,
2013-04-09 16:20:00,83.5,66.6,29.53,SE,135,0.0,0.0,57,0.00,,,0.00,WUHU21623XXSP,2013-04-09 20:20:00,
2013-04-09 16:25:00,83.5,66.1,29.53,SE,135,0.0,0.0,56,0.00,,,0.00,WUHU21623XXSP,2013-04-09 20:25:00,
2013-04-09 16:30:00,84.0,66.6,29.53,SE,135,0.0,0.0,56,0.00,,,0.00,WUHU21623XXSP,2013-04-09 20:30:00,
2013-04-09 16:35:00,83.8,67.0,29.53,ESE,112,0.0,0.0,57,0.00,,,0.00,WUHU21623XXSP,2013-04-09 20:35:00,
2013-04-09 16:40:00,84.7,66.8,29.53,East,90,0.0,0.0,55,0.00,,,0.00,WUHU21623XXSP,2013-04-09 20:40:00,
2013-04-09 16:45:00,84.0,66.6,29.53,ESE,112,0.0,0.0,56,0.00,,,0.00,WUHU21623XXSP,2013-04-09 20:45:00,
2013-04-09 16:50:00,84.0,66.1,29.53,SE,135,0.0,0.0,55,0.00,,,0.00,WUHU21623XXSP,2013-04-09 20:50:00,
2013-04-09 16:55:00,83.5,66.6,29.53,SE,135,0.0,0.0,57,0.00,,,0.00,WUHU21623XXSP,2013-04-09 20:55:00,
2013-04-09 17:00:00,84.6,67.1,29.53,NNE,22,0.0,0.0,56,0.00,,,0.00,WUHU21623XXSP,2013-04-09 21:00:00,
2013-04-09 17:05:00,83.5,66.1,29.53,ENE,67,0.0,0.0,56,0.00,,,0.00,WUHU21623XXSP,2013-04-09 21:05:00,
2013-04-09 17:10:00,83.3,65.9,29.53,SE,135,0.0,0.0,56,0.00,,,0.00,WUHU21623XXSP,2013-04-09 21:10:00,
2013-04-09 17:15:00,84.0,66.1,29.53,ESE,112,0.0,0.0,55,0.00,,,0.00,WUHU21623XXSP,2013-04-09 21:15:00,
2013-04-09 17:20:00,83.3,65.4,29.53,SE,135,0.0,0.0,55,0.00,,,0.00,WUHU21623XXSP,2013-04-09 21:20:00,
2013-04-09 17:25:00,82.9,65.6,29.53,NNE,22,0.0,0.0,56,0.00,,,0.00,WUHU21623XXSP,2013-04-09 21:25:00,
2013-04-09 17:30:00,83.3,65.4,29.53,ENE,67,0.0,0.0,55,0.00,,,0.00,WUHU21623XXSP,2013-04-09 21:30:00,
2013-04-09 17:35:00,84.2,65.8,29.53,ESE,112,0.0,0.0,54,0.00,,,0.00,WUHU21623XXSP,2013-04-09 21:35:00,
2013-04-09 17:40:00,82.9,65.0,29.53,NE,45,0.0,0.0,55,0.00,,,0.00,WUHU21623XXSP,2013-04-09 21:40:00,
2013-04-09 17:45:00,81.7,64.9,29.53,SSE,157,0.0,0.0,57,0.00,,,0.00,WUHU21623XXSP,2013-04-09 21:45:00,
2013-04-09 17:50:00,81.5,64.2,29.53,ESE,112,0.0,0.0,56,0.00,,,0.00,WUHU21623XXSP,2013-04-09 21:50:00,
2013-04-09 17:55:00,81.7,64.9,29.53,SSE,157,0.0,0.0,57,0.00,,,0.00,WUHU21623XXSP,2013-04-09 21:55:00,
2013-04-09 18:01:00,81.7,63.8,29.53,SE,135,0.0,0.0,55,0.00,,,0.00,WUHU21623XXSP,2013-04-09 22:01:00,
2013-04-09 18:06:00,81.3,64.0,29.54,ESE,112,0.0,0.0,56,0.00,,,0.00,WUHU21623XXSP,2013-04-09 22:06:00,
2013-04-09 18:11:00,81.1,63.9,29.54,SE,135,0.0,0.0,56,0.00,,,0.00,WUHU21623XXSP,2013-04-09 22:11:00,
2013-04-09 18:16:00,80.8,64.1,29.54,SE,135,0.0,0.0,57,0.00,,,0.00,WUHU21623XXSP,2013-04-09 22:16:00,
2013-04-09 18:21:00,79.9,63.8,29.54,SE,135,0.0,0.0,58,0.00,,,0.00,WUHU21623XXSP,2013-04-09 22:21:00,
2013-04-09 18:26:00,79.5,64.0,29.54,NE,45,0.0,0.0,59,0.00,,,0.00,WUHU21623XXSP,2013-04-09 22:26:00,
2013-04-09 18:31:00,79.2,64.2,29.54,NE,45,0.0,0.0,60,0.00,,,0.00,WUHU21623XXSP,2013-04-09 22:31:00,
2013-04-09 18:36:00,79.0,64.5,29.54,East,90,0.0,0.0,61,0.00,,,0.00,WUHU21623XXSP,2013-04-09 22:36:00,
2013-04-09 18:41:00,78.6,64.1,29.54,ESE,112,0.0,0.0,61,0.00,,,0.00,WUHU21623XXSP,2013-04-09 22:41:00,
2013-04-09 18:46:00,78.4,63.9,29.53,ESE,112,0.0,0.0,61,0.00,,,0.00,WUHU21623XXSP,2013-04-09 22:46:00,
2013-04-09 18:51:00,78.6,64.5,29.53,SE,135,0.0,0.0,62,0.00,,,0.00,WUHU21623XXSP,2013-04-09 22:51:00,
2013-04-09 18:56:00,78.3,64.2,29.53,ESE,112,0.0,0.0,62,0.00,,,0.00,WUHU21623XXSP,2013-04-09 22:56:00,
2013-04-09 19:02:00,78.1,64.5,29.53,ESE,112,0.0,0.0,63,0.00,,,0.00,WUHU21623XXSP,2013-04-09 23:02:00,
2013-04-09 19:07:00,77.7,64.1,29.53,ENE,67,0.0,0.0,63,0.00,,,0.00,WUHU21623XXSP,2013-04-09 23:07:00,
2013-04-09 19:12:00,77.2,64.0,29.53,SE,135,0.0,0.0,64,0.00,,,0.00,WUHU21623XXSP,2013-04-09 23:12:00,
2013-04-09 19:17:00,76.8,63.7,29.53,ENE,67,0.0,0.0,64,0.00,,,0.00,WUHU21623XXSP,2013-04-09 23:17:00,
2013-04-09 19:22:00,76.8,64.1,29.53,ENE,67,0.0,0.0,65,0.00,,,0.00,WUHU21623XXSP,2013-04-09 23:22:00,
2013-04-09 19:27:00,76.8,64.1,29.53,SE,135,0.0,0.0,65,0.00,,,0.00,WUHU21623XXSP,2013-04-09 23:27:00,
2013-04-09 19:32:00,76.6,64.0,29.54,East,90,0.0,0.0,65,0.00,,,0.00,WUHU21623XXSP,2013-04-09 23:32:00,
2013-04-09 19:37:00,76.3,64.1,29.53,SE,135,0.0,0.0,66,0.00,,,0.00,WUHU21623XXSP,2013-04-09 23:37:00,
2013-04-09 19:42:00,76.3,64.1,29.53,SE,135,0.0,0.0,66,0.00,,,0.00,WUHU21623XXSP,2013-04-09 23:42:00,
2013-04-09 19:47:00,76.3,64.1,29.53,SE,135,0.0,0.0,66,0.00,,,0.00,WUHU21623XXSP,2013-04-09 23:47:00,
2013-04-09 19:52:00,76.1,63.9,29.54,SE,135,0.0,0.0,66,0.00,,,0.00,WUHU21623XXSP,2013-04-09 23:52:00,
2013-04-09 19:57:00,75.9,63.7,29.54,ESE,112,0.0,0.0,66,0.00,,,0.00,WUHU21623XXSP,2013-04-09 23:57:00,
2013-04-09 20:02:00,75.9,64.1,29.54,East,90,0.0,0.0,67,0.00,,,0.00,WUHU21623XXSP,2013-04-10 00:02:00,
2013-04-09 20:07:00,75.7,64.0,29.54,SE,135,0.0,0.0,67,0.00,,,0.00,WUHU21623XXSP,2013-04-10 00:07:00,
2013-04-09 20:12:00,75.7,64.0,29.54,ESE,112,0.0,0.0,67,0.00,,,0.00,WUHU21623XXSP,2013-04-10 00:12:00,
2013-04-09 20:17:00,75.7,64.0,29.54,ESE,112,0.0,0.0,67,0.00,,,0.00,WUHU21623XXSP,2013-04-10 00:17:00,
2013-04-09 20:22:00,75.6,64.2,29.54,East,90,0.0,0.0,68,0.00,,,0.00,WUHU21623XXSP,2013-04-10 00:22:00,
2013-04-09 20:27:00,75.4,64.1,29.54,ESE,112,0.0,0.0,68,0.00,,,0.00,WUHU21623XXSP,2013-04-10 00:27:00,
2013-04-09 20:32:00,75.4,64.1,29.54,SE,135,0.0,0.0,68,0.00,,,0.00,WUHU21623XXSP,2013-04-10 00:32:00,
2013-04-09 20:37:00,75.2,63.9,29.54,SSE,157,0.0,0.0,68,0.00,,,0.00,WUHU21623XXSP,2013-04-10 00:37:00,
2013-04-09 20:42:00,75.0,63.7,29.55,East,90,0.0,0.0,68,0.00,,,0.00,WUHU21623XXSP,2013-04-10 00:42:00,
2013-04-09 20:47:00,75.0,63.3,29.55,ENE,67,0.0,0.0,67,0.00,,,0.00,WUHU21623XXSP,2013-04-10 00:47:00,
2013-04-09 20:52:00,75.0,63.3,29.55,ESE,112,0.0,0.0,67,0.00,,,0.00,WUHU21623XXSP,2013-04-10 00:52:00,
2013-04-09 20:57:00,75.0,62.9,29.55,NE,45,0.0,0.0,66,0.00,,,0.00,WUHU21623XXSP,2013-04-10 00:57:00,
2013-04-09 21:02:00,75.0,62.9,29.55,ENE,67,0.0,0.0,66,0.00,,,0.00,WUHU21623XXSP,2013-04-10 01:02:00,
2013-04-09 21:07:00,74.8,62.7,29.55,SE,135,0.0,0.0,66,0.00,,,0.00,WUHU21623XXSP,2013-04-10 01:07:00,
2013-04-09 21:12:00,74.8,63.1,29.56,ENE,67,0.0,0.0,67,0.00,,,0.00,WUHU21623XXSP,2013-04-10 01:12:00,
2013-04-09 21:17:00,74.8,63.1,29.56,ESE,112,0.0,0.0,67,0.00,,,0.00,WUHU21623XXSP,2013-04-10 01:17:00,
2013-04-09 21:23:00,74.8,63.1,29.56,NE,45,0.0,0.0,67,0.00,,,0.00,WUHU21623XXSP,2013-04-10 01:23:00,
2013-04-09 21:28:00,74.8,63.1,29.55,ESE,112,0.0,0.0,67,0.00,,,0.00,WUHU21623XXSP,2013-04-10 01:28:00,
2013-04-09 21:33:00,74.8,63.1,29.56,ENE,67,0.0,0.0,67,0.00,,,0.00,WUHU21623XXSP,2013-04-10 01:33:00,
2013-04-09 21:38:00,74.8,63.1,29.55,ENE,67,0.0,0.0,67,0.00,,,0.00,WUHU21623XXSP,2013-04-10 01:38:00,
2013-04-09 21:43:00,74.8,63.1,29.55,East,90,0.0,0.0,67,0.00,,,0.00,WUHU21623XXSP,2013-04-10 01:43:00,
2013-04-09 21:48:00,74.8,63.6,29.55,ESE,112,0.0,0.0,68,0.00,,,0.00,WUHU21623XXSP,2013-04-10 01:48:00,
2013-04-09 21:53:00,74.7,63.4,29.55,SE,135,0.0,0.0,68,0.00,,,0.00,WUHU21623XXSP,2013-04-10 01:53:00,
2013-04-09 21:58:00,74.7,63.4,29.55,East,90,0.0,0.0,68,0.00,,,0.00,WUHU21623XXSP,2013-04-10 01:58:00,
2013-04-09 22:03:00,74.5,63.2,29.55,ESE,112,0.0,0.0,68,0.00,,,0.00,WUHU21623XXSP,2013-04-10 02:03:00,
2013-04-09 22:08:00,74.5,63.2,29.55,ENE,67,0.0,0.0,68,0.00,,,0.00,WUHU21623XXSP,2013-04-10 02:08:00,
2013-04-09 22:13:00,74.5,63.2,29.55,ESE,112,0.0,0.0,68,0.00,,,0.00,WUHU21623XXSP,2013-04-10 02:13:00,
2013-04-09 22:18:00,74.5,63.2,29.56,East,90,0.0,0.0,68,0.00,,,0.00,WUHU21623XXSP,2013-04-10 02:18:00,
2013-04-09 22:23:00,74.5,63.7,29.55,SE,135,0.0,0.0,69,0.00,,,0.00,WUHU21623XXSP,2013-04-10 02:23:00,
2013-04-09 22:28:00,74.5,63.7,29.55,East,90,0.0,0.0,69,0.00,,,0.00,WUHU21623XXSP,2013-04-10 02:28:00,
2013-04-09 22:33:00,74.5,64.1,29.55,SE,135,0.0,0.0,70,0.00,,,0.00,WUHU21623XXSP,2013-04-10 02:33:00,
2013-04-09 22:38:00,74.5,64.1,29.55,ESE,112,0.0,0.0,70,0.00,,,0.00,WUHU21623XXSP,2013-04-10 02:38:00,
2013-04-09 22:43:00,74.3,64.0,29.55,ESE,112,0.0,0.0,70,0.00,,,0.00,WUHU21623XXSP,2013-04-10 02:43:00,
2013-04-09 22:48:00,74.3,64.3,29.55,ENE,67,0.0,0.0,71,0.00,,,0.00,WUHU21623XXSP,2013-04-10 02:48:00,
2013-04-09 22:53:00,74.3,64.3,29.55,SE,135,0.0,0.0,71,0.00,,,0.00,WUHU21623XXSP,2013-04-10 02:53:00,
2013-04-09 22:58:00,74.3,64.3,29.55,ESE,112,0.0,0.0,71,0.00,,,0.00,WUHU21623XXSP,2013-04-10 02:58:00,
2013-04-09 23:03:00,74.1,64.2,29.55,SE,135,0.0,0.0,71,0.00,,,0.00,WUHU21623XXSP,2013-04-10 03:03:00,
2013-04-09 23:08:00,74.1,64.2,29.55,ESE,112,0.0,0.0,71,0.00,,,0.00,WUHU21623XXSP,2013-04-10 03:08:00,
2013-04-09 23:13:00,74.1,64.2,29.55,East,90,0.0,0.0,71,0.00,,,0.00,WUHU21623XXSP,2013-04-10 03:13:00,
2013-04-09 23:18:00,74.1,64.2,29.55,SE,135,0.0,0.0,71,0.00,,,0.00,WUHU21623XXSP,2013-04-10 03:18:00,
2013-04-09 23:23:00,74.1,64.2,29.56,SSE,157,0.0,0.0,71,0.00,,,0.00,WUHU21623XXSP,2013-04-10 03:23:00,
2013-04-09 23:28:00,74.1,64.2,29.55,East,90,0.0,0.0,71,0.00,,,0.00,WUHU21623XXSP,2013-04-10 03:28:00,
2013-04-09 23:33:00,74.1,64.2,29.55,ESE,112,0.0,0.0,71,0.00,,,0.00,WUHU21623XXSP,2013-04-10 03:33:00,
2013-04-09 23:38:00,74.1,64.2,29.55,ESE,112,0.0,0.0,71,0.00,,,0.00,WUHU21623XXSP,2013-04-10 03:38:00,
2013-04-09 23:43:00,74.1,64.2,29.55,ESE,112,0.0,0.0,71,0.00,,,0.00,WUHU21623XXSP,2013-04-10 03:43:00,
2013-04-09 23:48:00,73.9,64.0,29.55,SE,135,0.0,0.0,71,0.00,,,0.00,WUHU21623XXSP,2013-04-10 03:48:00,
2013-04-09 23:53:00,73.9,64.0,29.55,ESE,112,0.0,0.0,71,0.00,,,0.00,WUHU21623XXSP,2013-04-10 03:53:00,
2013-04-09 23:58:00,73.9,64.0,29.55,SE,135,0.0,0.0,71,0.00,,,0.00,WUHU21623XXSP,2013-04-10 03:58:00,